Columbia, SC

4:19 PM EDT on July 27, 2017 (GMT -0400)
Columbia Metro

Weather History for KCAE - January, 2014

Change the Weather History Date:

Tuesday, January 7, 2014

  Actual Average Record
Temperature  
Mean Temperature 22 °F 44 °F  
Max Temperature 30 °F 55 °F 76 °F (1890)
Min Temperature 13 °F 33 °F 13 °F (2014)
Degree Days  
Heating Degree Days 43 21  
Month to date heating degree days 195 147  
Since 1 July heating degree days 1067 1157  
Cooling Degree Days 0 0  
Month to date cooling degree days 0 0  
Year to date cooling degree days 0 0  
Moisture  
Dew Point 2 °F    
Average Humidity 45    
Maximum Humidity 62    
Minimum Humidity 28    
Precipitation  
Precipitation 0.00 in 0.11 in 1.61 in (1993)
Month to date precipitation 0.29 0.78  
Year to date precipitation 0.29 0.78  
Sea Level Pressure  
Sea Level Pressure 30.47 in    
Wind  
Wind Speed 5 mph (West)    
Max Wind Speed 20 mph    
Max Gust Speed 24 mph    
Visibility 10 miles    
Events      
T = Trace of Precipitation, MM = Missing Value Source: NWS Daily Summary

Daily Weather History Graph

Daily Weather History Graph

Search for Another Location

Airport or City:

Trip Planner

Search our weather history database for the weather conditions in past years. The results will help you decide how hot, cold, wet, or windy it might be!

Date:

Astronomy

Jan. 07, 2014 Rise Set
Actual Time 7:30 AM EST 5:31 PM EST
Civil Twilight 7:03 AM EST 5:58 PM EST
Nautical Twilight 6:32 AM EST 6:29 PM EST
Astronomical Twilight 6:01 AM EST 7:00 PM EST
Moon 11:38 AM EST (1/7) No Moon Set
Length of Visible Light 10h 55m
Length of Day
10h 00m
Waxing Crescent, 45% of the Moon is Illuminated
Jan 7
Waxing Crescent
Jan 7
First Quarter
Jan 15
Full
Jan 24
Last Quarter
Jan 30
New

Hourly Weather History & Observations

Time (EST) Temp. Windchill Dew Point Humidity Pressure Visibility Wind Dir Wind Speed Gust Speed Precip Events Conditions
12:56 AM 19.0 °F 6.1 °F -0.9 °F 42% 30.33 in 10.0 mi West 12.7 mph 21.9 mph N/A   Clear
1:56 AM 17.1 °F 2.5 °F -2.0 °F 43% 30.36 in 10.0 mi West 15.0 mph - N/A   Clear
2:56 AM 16.0 °F 1.1 °F -2.0 °F 45% 30.39 in 10.0 mi West 15.0 mph - N/A   Clear
3:56 AM 15.1 °F 2.5 °F -2.0 °F 47% 30.40 in 10.0 mi West 10.4 mph - N/A   Clear
4:56 AM 15.1 °F 2.5 °F -2.0 °F 47% 30.42 in 10.0 mi West 10.4 mph - N/A   Clear
5:56 AM 14.0 °F 2.9 °F -0.9 °F 52% 30.43 in 10.0 mi West 8.1 mph - N/A   Clear
6:56 AM 12.9 °F 5.2 °F -0.0 °F 56% 30.45 in 10.0 mi West 4.6 mph - N/A   Clear
7:56 AM 14.0 °F 8.2 °F -0.0 °F 54% 30.47 in 10.0 mi West 3.5 mph - N/A   Partly Cloudy
8:56 AM 17.1 °F 5.8 °F 1.0 °F 50% 30.53 in 10.0 mi West 9.2 mph - N/A   Partly Cloudy
9:56 AM 19.0 °F - 1.9 °F 47% 30.53 in 10.0 mi Calm Calm - N/A   Scattered Clouds
10:56 AM 21.9 °F 15.7 °F 3.0 °F 44% 30.52 in 10.0 mi NW 4.6 mph - N/A   Partly Cloudy
11:56 AM 25.0 °F - 1.9 °F 37% 30.50 in 10.0 mi Calm Calm - N/A   Partly Cloudy
12:56 PM 25.0 °F 19.3 °F 3.0 °F 39% 30.46 in 10.0 mi Variable 4.6 mph - N/A   Partly Cloudy
1:56 PM 27.0 °F 20.5 °F 1.0 °F 33% 30.44 in 10.0 mi Variable 5.8 mph - N/A   Partly Cloudy
2:56 PM 28.9 °F 23.9 °F -0.0 °F 29% 30.45 in 10.0 mi Variable 4.6 mph - N/A   Scattered Clouds
3:56 PM 30.0 °F 23.2 °F 1.0 °F 29% 30.46 in 10.0 mi WNW 6.9 mph - N/A   Mostly Cloudy
4:56 PM 28.9 °F 25.2 °F 1.0 °F 30% 30.47 in 10.0 mi West 3.5 mph - N/A   Mostly Cloudy
5:56 PM 28.0 °F - 1.9 °F 33% 30.49 in 10.0 mi Calm Calm - N/A   Scattered Clouds
6:56 PM 27.0 °F - 1.9 °F 34% 30.51 in 10.0 mi Calm Calm - N/A   Scattered Clouds
7:56 PM 25.0 °F - 7.0 °F 46% 30.53 in 10.0 mi Calm Calm - N/A   Scattered Clouds
8:56 PM 23.0 °F - 9.0 °F 55% 30.53 in 10.0 mi Calm Calm - N/A   Scattered Clouds
9:56 PM 21.0 °F 16.2 °F 10.9 °F 65% 30.54 in 10.0 mi SW 3.5 mph - N/A   Clear
10:56 PM 21.9 °F - 10.0 °F 60% 30.54 in 10.0 mi Calm Calm - N/A   Clear
11:56 PM 19.9 °F - 12.0 °F 71% 30.53 in 10.0 mi Calm Calm - N/A   Clear